Regional Weather Roundup
Issued by NWS

Home | Current Version | Previous Version | Text Only | Print | Product List | Glossary Off
Versions: 1 2 3 4 5 6 7 8 9 10 11 12 13 14 15 16 17 18 19 20 21 22 23 24 25 26 27 28 29 30 31 32 33 34 35 36 37 38 39 40 41 42 43 44 45 46 47 48 49 50

000
ASUS45 KTFX 261119
RWRMT
MONTANA HOURLY WEATHER ROUNDUP
NATIONAL WEATHER SERVICE GREAT FALLS MT
519 AM MDT THU MAR 26 2015

NOTE: "FAIR" INDICATES FEW OR NO CLOUDS BELOW 12000 FEET WITH NO
SIGNIFICANT WEATHER AND/OR OBSTRUCTIONS TO VISIBILITY.

* THESE STATIONS ARE NOT UNDER NWS QUALITY CONTROL. THEY DO NOT
   REPORT WEATHER SUCH AS PRECIPITATION OR FOG.

MTZ001>007-043-261200-
WEST OF THE DIVIDE
CITY           SKY/WX    TMP DP  RH WIND       PRES   REMARKS
KALISPELL      CLOUDY    39  39 100 CALM      30.28S
MISSOULA       CLOUDY    41  37  86 N5        30.32F
BUTTE          CLOUDY    37  28  70 CALM      30.28S
MULLAN PASS    LGT RAIN  34  34 100 VRB7      30.29S VSB M1/4 WCI  28
* ESSEX        N/A       36  34  92 N/A        N/A
* EUREKA APT   PTCLDY    39  37  93 CALM      30.26F
* HAMILTON APT PTCLDY    46  34  63 S9        30.32S
* LIBBY APT    PTCLDY    37  36  96 CALM      30.28S
* LINCOLN      N/A       36  34  92 W2G7       N/A
* LOOKOUT PASS N/A       40  38  93 E2G8       N/A
* POLSON       N/A       39  39 100 S1         N/A
* RONAN APT    CLOUDY    43  39  86 SE5        N/A
* SEELEY LAKE  N/A       34  33  96 N/A        N/A
* THOMP F APT  PTCLDY    28  18  66 NE2G8      N/A
* YAAK HILL    N/A       41  38  89 N/A        N/A
$$

MTZ008-052>055-261200-
SOUTHWEST MONTANA
CITY           SKY/WX    TMP DP  RH WIND       PRES   REMARKS
BOZEMAN        CLOUDY    39  34  82 E5        30.27S WCI  35
DILLON         MOCLDY    37  27  67 S12       30.29F WCI  29
* W YELLOWSTON PTCLDY    29  21  72 SW4G10     N/A
* THREE FORKS  PTCLDY    45  36  71 N/A        N/A
* TWIN BRIDGES PTCLDY    39  25  57 SE5        N/A   WCI  35
* BOULDER HILL N/A       40  24  53 S4         N/A
* HOMESTAKE PS N/A       36  28  73 W11G19     N/A   WCI  28
* MONIDA PASS  N/A       23  18  81 S4G9       N/A
* RAYNOLDS PAS N/A       28  11  49 SE12       N/A   WCI  18
* WHITEHALL    N/A       43  29  58 W8G13      N/A
* WISE RIVER   N/A       40  30  68 SW13G22    N/A   WCI  32
$$

MTZ009>010-012-014-046-048-049-054-261200-
EAST SLOPES AND CENTRAL MONTANA
CITY           SKY/WX    TMP DP  RH WIND       PRES   REMARKS
CUT BANK       PTCLDY    39  30  70 W14       30.07F WCI  31
GREAT FALLS    CLOUDY    45  32  60 SW17      30.13F
HELENA         CLOUDY    46  34  63 W8        30.25R
MALMSTROM AFB  CLOUDY    46  34  63 SW21G28   30.13F
* DEARBORN     N/A       47  32  56 S7G14      N/A
* EAST GLACIER N/A       41  30  65 W27G34     N/A
* MONARCH      N/A       38  28  67 SW18G26    N/A   WCI  28
* PENDROY      N/A       44  27  51 W14G21     N/A
* ROGERS PASS  N/A       35  32  89 SE12G24    N/A   WCI  27
* SWEET GRASS  N/A       40  30  68 W14G20     N/A   WCI  32
* WHITE SULPH  N/A       38  32  79 NW7G19     N/A   WCI  33
$$

MTZ011-013-016-021-035-040-045-047-050-051-261200-
NORTH CENTRAL MONTANA
CITY           SKY/WX    TMP DP  RH WIND       PRES   REMARKS
HAVRE          PTCLDY    36  28  73 W5        30.10S WCI  32
LEWISTOWN      CLOUDY    43  30  60 SW10      30.14R
* N BAR RANCH  MOCLDY    43  28  56 NW23G33   30.10R
* CHINOOK      PTCLDY    34  28  79 W3        30.10R
* FORT BENTON  MOCLDY    48  34  59 SW10      30.12F
* CHESTER      N/A       35  27  73 S3         N/A
* DENTON       N/A       44  29  56 W17G24     N/A
* GEYSER       N/A       44  29  56 W21G30     N/A
* JUDITH GAP   N/A       40  27  60 NW12       N/A   WCI  33
* LOMA         N/A       45  32  60 W7         N/A
$$

MTZ017>020-022>027-061-062-261200-
NORTHEAST MONTANA
CITY           SKY/WX    TMP DP  RH WIND       PRES   REMARKS
GLASGOW        PTCLDY    28  25  89 E8        30.08R WCI  20
GLENDIVE       MOCLDY    28  27  96 NE9       30.08R WCI  19
JORDAN         PTCLDY    34  28  79 NW7       30.07R WCI  28
SIDNEY         CLOUDY    30  28  92 CALM      30.11S
WOLF POINT     FOG       32  28  85 E9        30.10R WCI  24
* BEAVER HILL  N/A       30  28  92 SE13G22    N/A   WCI  20
* CIRCLE       N/A       36  28  73 N3         N/A
* LINDSAY DVD  N/A       29  26  89 NE5        N/A   WCI  24
* NAVAJO       N/A       27  27 100 E6         N/A   WCI  20
* PLENTYWOOD A CLEAR     30  28  92 SE7       30.11R WCI  23
* POPLAR APT   PTCLDY    32  32 100 E8        30.10R WCI  25
* SACO         N/A       28  23  81 NE4        N/A
$$

MTZ028>042-056>058-261200-
SOUTHCENTRAL AND SOUTHEAST MONTANA
CITY           SKY/WX    TMP DP  RH WIND       PRES   REMARKS
BAKER          CLOUDY    32  27  82 E6        30.04F WCI  26
BILLINGS       CLOUDY    46  28  50 W16       30.14S
LIVINGSTON     CLOUDY    45  30  56 W23G36    30.20S
MILES CITY     MOCLDY    37  28  70 W9        30.06S WCI  30
* BIG TIMBER A MOCLDY    43  32  65 SW30G39   30.15F
* FORSYTH APT  MOCLDY    45  28  51 W9        30.09S
* LAUREL APT   MOCLDY    46  25  44 W9         N/A
* ROUNDUP APT  MOCLDY    45  27  49 N/A        N/A
* ALZADA       N/A       41  29  62 SW10       N/A
* HYSHAM       N/A       43  22  43 SW1        N/A
* LAME DEER    N/A       40  25  55 W8         N/A   WCI  35
* REED POINT   N/A       48  26  42 W20G29     N/A
* ROSCOE HILL  N/A       46  11  24 W10G21     N/A
$$

REGIONAL REPORTS...DAKOTAS
CITY           SKY/WX    TMP DP  RH WIND       PRES   REMARKS
WILLISTON      LGT SNOW  28  27  96 E3        30.12F
DICKINSON      LGT SNOW  27  25  92 SE9       30.07F VSB 3/4  WCI  18
BEACH          CLOUDY    28  28 100 E6        30.07S WCI  21
CROSBY         CLEAR     25  25 100 SE6       30.15F WCI  18
TIOGA          MOCLDY    25  25 100 E7        30.16F WCI  17
WATFORD CITY   LGT SNOW  27  27 100 SE8       30.11F WCI  19
BISMARCK       CLOUDY    25  23  92 E3        30.19R
GRAND FORKS    PTCLDY    21  18  88 NW8       30.22R WCI  11
FARGO          CLOUDY    25  18  75 N9        30.19R WCI  16
BUFFALO SD     CLOUDY    30  25  82 SE6       29.98F WCI  24
RAPID CITY     CLOUDY    32  27  82 CALM      30.09F
$$

REGIONAL REPORTS...WYOMING/IDAHO/WASHINGTON
CITY           SKY/WX    TMP DP  RH WIND       PRES   REMARKS
GILLETTE       CLOUDY    39  27  62 NW15      30.13R WCI  31
SHERIDAN       CLOUDY    43  30  60 NW7       30.15S
CODY           CLOUDY    45  21  38 W13G21    30.19R
YELLOWSTONE LA PTCLDY    21  18  88 CALM      30.34R
SALMON         CLOUDY    43  32  65 CALM      30.35S
MULLAN PASS    LGT RAIN  34  34 100 VRB7      30.29S VSB M1/4 WCI  28
SAND POINT     N/A       43  43 100 CALM      30.29F
SPOKANE        CLOUDY    46  45  96 S8        30.29F
$$

REGIONAL REPORTS...ALBERTA
CITY           SKY/WX    TMP DP  RH WIND       PRES   REMARKS
CALGARY        MOCLDY    34  25  70 S3        30.00S
LETHBRIDGE     CLEAR     45  32  60 W22G28    30.04F
EDMONTON       MOCLDY    34  28  79 S6        30.01R WCI  29
WATERTON GATE  N/A       41  32  70 SW24G36    N/A
CARDSTON       N/A       45  32  60 W13G18     N/A
MILK RIVER     N/A       34  28  79 W8         N/A   WCI  27
$$

REGIONAL REPORTS...SASKATCHEWAN
CITY           SKY/WX    TMP DP  RH WIND       PRES   REMARKS
SWIFT CURRENT  PTCLDY    28  27  96 SW8       30.05S WCI  20
MOOSE JAW      FAIR      25  23  92 E5        30.12R WCI  19
REGINA         FAIR      25  21  85 E13       30.15R WCI  13
VAL MARIE      N/A       23  23 100 NE2        N/A
ASSINIBOIA     N/A       23  23 100 E7         N/A   WCI  15
CORONACH       N/A       30  28  92 SE8        N/A   WCI  22

$$




USA.gov is the U.S. government's official web portal to all federal, state and local government web resources and services.